Location: Plainartige
(45.6866°N, 1.7993°E)
Time: 04:57:26
(UTC+00:00)

Vanguard 1 - Pass Details

Date: 28 May 2022
Orbit: 649 x 3833 km, 34.2° (Epoch: 06 July)

Event Time Altitude Azimuth Distance (km) Brightness Sun altitude
Rises 03:24:40 0° 262° (W) 6,042 13.6 -7.1°
Reaches altitude 10° 03:28:07 10° 258° (WSW) 5,378 13.3 -6.7°
Maximum altitude 03:45:22 59° 185° (S) 3,939 12.9 -4.3°
Drops below altitude 10° 04:08:06 10° 114° (ESE) 6,819 14.8 -1.0°
Sets 04:13:10 0° 111° (ESE) 7,670 15.2 -0.3°
